This is the latest recevied weather packets stored in our database for station/object N8TWM-13. If no packets are shown the sender has not sent any weather packets the latest 10 day(s).
| Time | Temp. | Humidity | Pressure | Rain* | Wind** | Luminosity | Snow |
|---|---|---|---|---|---|---|---|
| 1777808975 | 5° C | 71% | 1017.4 hPa | 0 mm | - | 117 W/m² | - |
| 1777808672 | 5° C | 73% | 1017.4 hPa | 0 mm | - | 106 W/m² | - |
| 1777808369 | 4.44° C | 75% | 1017.5 hPa | 0 mm | - | 92 W/m² | - |
| 1777808067 | 4.44° C | 75% | 1017.2 hPa | 0 mm | - | 54 W/m² | - |
| 1777807765 | 3.89° C | 76% | 1017.2 hPa | 0 mm | - | 49 W/m² | - |
| 1777807463 | 3.89° C | 77% | 1017.4 hPa | 0 mm | - | 45 W/m² | - |
| 1777807163 | 3.89° C | 78% | 1017.4 hPa | 0 mm | - | 40 W/m² | - |
| 1777806861 | 3.33° C | 79% | 1017.2 hPa | 0 mm | - | 36 W/m² | - |
| 1777806557 | 3.33° C | 79% | 1017 hPa | 0 mm | - | 32 W/m² | - |
| 1777806253 | 2.78° C | 81% | 1017.1 hPa | 0 mm | - | 28 W/m² | - |
| 1777805950 | 2.22° C | 82% | 1017 hPa | 0 mm | - | 24 W/m² | - |
| 1777805646 | 1.67° C | 82% | 1017 hPa | 0 mm | - | 20 W/m² | - |
| 1777805344 | 1.11° C | 83% | 1017 hPa | 0 mm | - | 16 W/m² | - |
| 1777805043 | 1.11° C | 83% | 1017 hPa | 0 mm | - | 12 W/m² | - |
| 1777804739 | 0.56° C | 84% | 1016.8 hPa | 0 mm | - | 10 W/m² | - |
| 1777804437 | 0.56° C | 84% | 1016.8 hPa | 0 mm | - | 5 W/m² | - |
| 1777804134 | 0.56° C | 84% | 1016.5 hPa | 0 mm | - | 3 W/m² | - |
| 1777803831 | 0.56° C | 84% | 1016.8 hPa | 0 mm | - | 0 W/m² | - |
| 1777803526 | 0.56° C | 83% | 1016.6 hPa | 0 mm | - | 0 W/m² | - |
| 1777803224 | 1.11° C | 83% | 1016.8 hPa | 0 mm | - | 0 W/m² | - |
| 1777802921 | 1.11° C | 82% | 1016.5 hPa | 0 mm | - | 0 W/m² | - |
| 1777802619 | 1.11° C | 82% | 1016.6 hPa | 0 mm | - | 0 W/m² | - |
| 1777802316 | 1.11° C | 82% | 1016.5 hPa | 0 mm | - | 0 W/m² | - |
| 1777802015 | 1.11° C | 82% | 1016.4 hPa | 0 mm | - | 0 W/m² | - |
| 1777801712 | 1.11° C | 81% | 1016.6 hPa | 0 mm | - | 0 W/m² | - |
* Rain latest hour (hover to see other rain measurements)
** Current wind speed in m/s (hover to see current wind gust speed)